This is the latest recevied weather packets stored in our database for station/object KB3UMW-13. If no packets are shown the sender has not sent any weather packets the latest 10 day(s).
| Time | Temp. | Humidity | Pressure | Rain* | Wind** | Luminosity | Snow |
|---|---|---|---|---|---|---|---|
| 1777844336 | 10.56° C | 47% | 1014.5 hPa | 0 mm | - | 47 W/m² | - |
| 1777844034 | 10.56° C | 42% | 1014.5 hPa | 0 mm | - | 48 W/m² | - |
| 1777843730 | 11.11° C | 44% | 1014.5 hPa | 0 mm | - | 50 W/m² | - |
| 1777843428 | 11.11° C | 49% | 1014.5 hPa | 0 mm | - | 51 W/m² | - |
| 1777843125 | 11.11° C | 46% | 1014.5 hPa | 0 mm | - | 52 W/m² | - |
| 1777842822 | 11.11° C | 45% | 1014.3 hPa | 0 mm | - | 53 W/m² | - |
| 1777842517 | 11.11° C | 49% | 1014.5 hPa | 0 mm | - | 56 W/m² | - |
| 1777842215 | 11.67° C | 43% | 1014.6 hPa | 0 mm | - | 57 W/m² | - |
| 1777841909 | 11.67° C | 40% | 1014.7 hPa | 0 mm | - | 353 W/m² | - |
| 1777841606 | 12.22° C | 44% | 1014.7 hPa | 0 mm | - | 505 W/m² | - |
| 1777841303 | 12.22° C | 44% | 1014.7 hPa | 0 mm | - | 529 W/m² | - |
| 1777841000 | 12.22° C | 46% | 1014.5 hPa | 0 mm | - | 529 W/m² | - |
| 1777840697 | 12.78° C | 49% | 1014.8 hPa | 0 mm | - | 559 W/m² | - |
| 1777840395 | 12.78° C | 42% | 1014.7 hPa | 0 mm | - | 590 W/m² | - |
| 1777840092 | 12.78° C | 45% | 1014.6 hPa | 0 mm | - | 601 W/m² | - |
| 1777839790 | 12.22° C | 47% | 1014.8 hPa | 0 mm | - | 610 W/m² | - |
| 1777839488 | 12.78° C | 47% | 1015 hPa | 0 mm | - | 634 W/m² | - |
| 1777839184 | 12.22° C | 46% | 1015 hPa | 0 mm | - | 655 W/m² | - |
| 1777838882 | 12.22° C | 46% | 1015 hPa | 0 mm | - | 663 W/m² | - |
| 1777838577 | 12.22° C | 44% | 1015.1 hPa | 0 mm | - | 270 W/m² | - |
| 1777838269 | 13.33° C | 47% | 1015.3 hPa | 0 mm | - | 706 W/m² | - |
| 1777837965 | 12.78° C | 43% | 1015.2 hPa | 0 mm | - | 731 W/m² | - |
| 1777837663 | 13.33° C | 38% | 1015.2 hPa | 0 mm | - | 799 W/m² | - |
| 1777837358 | 12.78° C | 41% | 1015.1 hPa | 0 mm | - | 547 W/m² | - |
| 1777837055 | 12.22° C | 53% | 1015.5 hPa | 0 mm | - | 763 W/m² | - |
* Rain latest hour (hover to see other rain measurements)
** Current wind speed in m/s (hover to see current wind gust speed)